Location: Rodson Ranch
(38.7188°N, 119.3202°W)
Time: 16:36:27
(UTC+00:00)

ALOS - Pass Details

Date: 29 October 2020
Orbit: 683 x 685 km, 97.9° (Epoch: 23 November)

Event Time Altitude Azimuth Distance (km) Brightness Sun altitude
Rises 12:20:09 0° 15° (NNE) 3,054 5.8 -24.2°
Reaches altitude 10° 12:22:25 10° 19° (NNE) 2,135 5.0 -23.8°
Maximum altitude 12:27:03 65° 101° (E) 753 2.6 -22.9°
Drops below altitude 10° 12:31:40 10° 183° (S) 2,120 4.8 -22.0°
Sets 12:33:55 0° 186° (S) 3,031 5.5 -21.5°
